Location: Chuathbaluk
(61.5726°N, 159.2454°W)
Time: 16:17:47
(UTC+00:00)

NOAA 15 - Pass Details

Date: 22 January 2021
Orbit: 798 x 812 km, 98.7° (Epoch: 05 March)

Event Time Altitude Azimuth Distance (km) Brightness Sun altitude
Rises 05:16:16 0° 172° (S) 3,304 7.7 -20.5°
Reaches altitude 10° 05:18:38 10° 176° (S) 2,379 7.0 -20.7°
Maximum altitude 05:23:50 60° 257° (WSW) 920 5.1 -21.3°
Drops below altitude 10° 05:29:06 10° 337° (NNW) 2,404 7.3 -22.0°
Sets 05:31:29 0° 341° (NNW) 3,341 8.0 -22.3°
